Simultaneous Nadir Overpasses (SNOs) Predictions

Prediction of SNOs between NPP and TERRA Satellite Orbit:

Table of predicted SNOs for the next 14.0 days since TLE Epoch: 11/8/2025
Index Date (NPP) Time (NPP) Lat,Lon (NPP) SZA (NPP ) Date (TERRA) Time (TERRA) Lat,Lon (TERRA) SZA (TERRA ) Distance(km) Time Diff (sec)
1 11/10/2025 00:04:41 74.72, 166.89 91.92 11/10/2025 00:04:57 74.69, 166.85 91.89 2.93 16
2 11/10/2025 00:55:23 -74.62, -25.54 88.18 11/10/2025 00:54:17 -74.64, -25.59 88.15 2.93 66
3 11/12/2025 09:35:43 74.97, 23.44 92.86 11/12/2025 09:36:54 74.86, 24.20 92.71 25.48 71
4 11/12/2025 10:26:21 -74.69,-168.44 87.45 11/12/2025 10:26:16 -74.71,-168.49 87.43 2.63 5
5 11/12/2025 11:16:53 74.01, 0.65 91.83 11/12/2025 11:15:48 74.01, -2.42 91.96 93.90 65
6 11/14/2025 19:57:19 -74.76, 48.63 86.74 11/14/2025 19:58:15 -74.74, 48.54 86.76 3.50 56
7 11/14/2025 20:48:04 74.71,-143.93 93.23 11/14/2025 20:47:34 74.72,-143.84 93.23 2.46 30
8 11/17/2025 06:19:01 74.75, 73.26 93.86 11/17/2025 06:19:32 74.77, 73.24 93.88 2.99 31
9 11/17/2025 07:09:44 -74.70,-119.30 86.18 11/17/2025 07:08:53 -74.68,-119.31 86.20 2.31 51
10 11/19/2025 16:40:41 -74.74, 97.87 85.57 11/19/2025 16:40:50 -74.76, 97.83 85.56 2.34 9
11 11/19/2025 17:31:23 74.55, -94.30 94.23 11/19/2025 17:30:11 74.63, -94.82 94.34 17.67 72
12 11/22/2025 02:11:39 -74.84, -45.12 84.93 11/22/2025 02:12:47 -74.81, -45.09 84.97 3.03 68



Historial Predications of SNOs between NPP and TERRA
